Miscellaneous Local Product
Issued by NWS Hastings, NE

Home | Current Version | Previous Version | Graphics & Text | Print | Product List | Glossary On
Versions: 1 2 3 4 5 6 7 8 9 10 11 12 13 14 15 16 17 18 19 20 21 22 23 24 25 26 27 28 29 30 31 32 33 34 35 36 37 38 39 40 41 42 43 44 45 46 47 48 49 50
000
AXUS43 KGID 291302
MISGRI

GID CWA HOURLY WEATHER ROUNDUP
NATIONAL WEATHER SERVICE HASTINGS NE
800 AM CDT SUN MAY 29 2016

NOTE: "FAIR" INDICATES FEW OR NO CLOUDS BELOW 12,000 FEET WITH NO
SIGNIFICANT WEATHER AND/OR OBSTRUCTIONS TO VISIBILITY.

...SOUTH CENTRAL NEBRASKA...

CITY           SKY/WX    TMP DP  RH WIND       PRES   REMARKS
GRAND ISLAND   MOSUNNY   64  56  75 SW5       30.11R
HASTINGS       MOSUNNY   61  56  83 CALM      30.11R
KEARNEY        MOSUNNY   59  52  77 SW3       30.12R
ORD            SUNNY     58  55  90 CALM      30.08R
YORK           SUNNY     61  57  88 S3        30.10R
AURORA         SUNNY     62  58  87 SW5       30.10R
LEXINGTON      SUNNY     57  53  84 NW3       30.12S
HOLDREGE       SUNNY     57  53  85 CALM      30.11S
HEBRON         PTSUNNY   61  57  87 CALM      30.10R

...NEBRASKA PANHANDLE...

CITY           SKY/WX    TMP DP  RH WIND       PRES   REMARKS
CHADRON        SUNNY     46  42  86 CALM      30.10S
ALLIANCE       SUNNY     47  45  93 CALM      30.11R
SCOTTSBLUFF    SUNNY     50  45  83 NW7       30.12R
SIDNEY         SUNNY     50  46  86 CALM      30.14R

...WESTERN AND NORTH CENTRAL NEBRASKA...

CITY           SKY/WX    TMP DP  RH WIND       PRES   REMARKS
VALENTINE      MOSUNNY   54  49  83 CALM      30.09S
AINSWORTH      SUNNY     57  52  81 W6        30.10R
ONEILL         SUNNY     61  55  80 W6        30.08R
BROKEN BOW     SUNNY     59  54  83 W5        30.11R
IMPERIAL       SUNNY     56  51  84 NW5       30.13R
NORTH PLATTE   SUNNY     54  52  93 CALM      30.13R
MCCOOK         SUNNY     58  53  84 NE5       30.11R

...EASTERN NEBRASKA...

CITY           SKY/WX    TMP DP  RH WIND       PRES   REMARKS
NORFOLK        CLOUDY    61  56  83 CALM      30.07R
SO SIOUX CITY  SUNNY     61  58  90 S3        30.05R
TEKAMAH        CLOUDY    59  55  87 CALM      30.07R
COLUMBUS       MOSUNNY   61  54  77 CALM      30.09R
ALBION         SUNNY     60  56  86 CALM      30.09R
OMAHA EPPLEY   CLOUDY    60  57  89 SE3       30.07R
OFFUTT AFB     PTSUNNY   61  61 100 SW1       30.07R
MILLARD        CLOUDY    58  57  94 CALM      30.07R
LINCOLN        CLOUDY    62  58  86 CALM      30.09R
NEBRASKA CITY  SUNNY     65  60  85 S5        30.08R
BEATRICE       MOSUNNY   62  58  87 SW3       30.09R
FALLS CITY     SUNNY     64  61  90 S3        30.08R

...NORTHERN KANSAS...

CITY           SKY/WX    TMP DP  RH WIND       PRES   REMARKS
GOODLAND       SUNNY     60  50  69 S9        30.13R
HILL CITY      CLOUDY    62  55  77 W3        30.12R
NORTON         MOSUNNY   61  52  72 SW7       30.11R
PHILLIPSBURG   SUNNY     63  54  72 SW3       30.10S
SMITH CENTER   SUNNY     63  57  82 S5        30.11R
BELOIT         MOSUNNY   61  57  88 CALM      30.10R
HAYS           MOSUNNY   61  52  72 CALM      30.11R
RUSSELL        MOSUNNY   62  57  83 SE7       30.09F
CONCORDIA      PTSUNNY   65  57  75 CALM      30.10R
SALINA         SUNNY     66  61  84 S5        30.09S
TOPEKA         SUNNY     68  61  78 CALM      30.09R



USA.gov is the U.S. government's official web portal to all federal, state and local government web resources and services.